Torna al catalogo

SL-6 R/B(2)

AttivoHEO
NORAD 10155·ROCKET BODY·🇷🇺 Russia

Lanciato Jun 24, 1977 da Baikonur Cosmodrome

Loading…

Prossimi Passaggi (prossime 24 ore)

TLE

AggiornatoSource: Space-Track

Epoca: Sep 14, 2026, 04:18 UTC

1 10155U 77054D   26257.17943180  .00000130  00000-0  00000-0 0  9994
2 10155  64.1881 192.9492 6507859 276.2205  18.5665  2.48958989120974

Traccia SL-6 R/B(2) in tempo reale con AllMySat

Download on the App Store